CW0630 Weather Reports


Display with metric or nautical units.
time (UTC)temp
F
wind
direction
speed
MPH
gust
MPH
rain 1hr
in
rain 24hr
in
rain mn
in
humidity
%
barometer
mb
20221204151026 43 341 11.0 11.0 0.00 3.97 0.00 65 1025.5
20221204141012 40 76 2.0 4.0 0.00 3.98 0.00 76 1025.7
20221204131016 35 14 0.0 0.0 0.00 3.98 0.00 89 1025.5
20221204121025 32 20 1.0 2.0 0.00 3.99 0.00 92 1025.0
20221204111033 33 348 0.0 0.0 0.00 3.99 0.00 91 1024.1
20221204101038 34 347 1.0 2.0 0.00 3.99 0.00 92 1023.5
20221204091032 35 337 0.0 0.0 0.00 3.99 0.00 92 1023.5
20221204081016 37 331 2.0 2.0 0.00 3.99 0.00 93 1023.5
20221204071023 39 341 0.0 0.0 0.00 3.99 0.00 94 1023.5
20221204061016 42 341 0.0 1.0 0.00 3.99 0.00 93 1023.2
20221204051031 44 340 2.0 3.0 0.00 3.99 0.00 93 1023.4
20221204041016 48 323 2.0 2.0 0.00 3.99 0.42 95 1023.1
20221204031015 50 323 0.0 0.0 0.00 3.99 0.42 95 1022.4
20221204021034 52 225 0.0 2.0 0.00 3.99 0.42 95 1021.9
20221204011023 54 229 2.0 6.0 0.00 3.99 0.42 94 1021.5
20221204001037 55 194 2.0 2.0 0.00 3.99 0.42 93 1020.8
20221203231032 57 195 11.0 11.0 0.00 3.99 0.42 91 1020.4
20221203221038 58 217 5.0 5.0 0.00 3.99 0.42 88 1019.9
20221203211032 60 215 7.0 11.0 0.00 3.99 0.42 86 1019.4
20221203201021 60 198 6.0 6.0 0.00 3.99 0.42 87 1019.8
20221203191014 60 206 4.0 6.0 3.95 3.99 0.42 90 1020.3
20221203181033 57 184 5.0 5.0 0.00 0.42 0.42 93 1020.7
20221203171031 55 180 5.0 6.0 0.07 0.42 0.42 95 1022.2
20221203161018 54 225 5.0 5.0 0.10 0.36 0.36 94 1023.5